Wind_Speed
28 35 39 41 32 31 23 21 19 18 17 16 16 14 15 14 17 15 9 10 9 14 12 6 4 3 8 13 6 11 13 14 16 17 17 20 20 18 17 15 11 10 10 10 10 9 11 14 15
29 37 43 42 34 30 25 17 20 18 20 18 14 9 13 17 17 14 15 15 14 16 11 10 11 6 9 11 18 16 14 15 17 19 20 20 19 18 18 16 14 12 12 11 10 11 12 12 13
34 41 47 41 34 30 28 24 14 11 8 8 9 9 9 14 13 16 15 20 16 18 14 15 15 15 15 13 15 19 13 15 19 20 21 22 21 19 16 16 15 16 14 13 13 10 10 11 12
36 44 48 42 36 35 33 25 18 12 4 7 11 8 7 13 14 16 13 20 25 23 24 23 25 17 16 17 13 20 15 15 17 18 20 21 21 19 17 16 16 15 15 14 12 10 10 11 11
38 48 49 43 41 40 34 29 21 4 12 11 18 18 18 12 19 18 18 20 16 21 22 26 18 16 20 23 20 17 18 20 16 17 19 21 20 20 18 16 15 15 14 15 13 11 10 10 10
42 47 47 45 43 35 37 34 28 30 28 16 9 22 19 21 23 22 22 21 27 29 25 22 24 26 27 25 26 26 28 27 26 25 22 21 20 21 20 20 17 16 16 14 16 15 12 10 11
41 46 47 46 42 40 39 29 26 19 23 13 7 11 12 18 19 15 14 14 16 20 25 30 29 30 31 32 33 30 29 29 30 26 24 23 21 23 22 19 19 18 16 17 16 15 15 13 11
47 45 48 48 42 45 38 28 33 27 23 20 15 14 17 21 23 23 22 20 25 22 22 26 28 31 30 32 36 35 35 32 32 30 28 28 28 26 24 23 20 19 19 19 19 18 17 16 15
48 48 48 48 44 39 37 42 37 27 23 22 13 15 15 24 27 30 28 27 30 32 31 31 32 31 31 30 29 29 32 36 34 35 36 32 30 28 25 25 25 25 23 21 21 22 21 19 16
51 50 50 45 40 38 43 41 35 28 29 24 17 20 20 20 25 29 31 33 34 37 38 38 37 38 36 36 33 31 34 33 32 35 35 39 38 31 27 25 27 26 26 27 23 21 24 24 21
46 45 42 40 39 37 44 40 34 32 28 23 19 21 27 32 27 29 30 31 35 37 39 40 41 43 42 40 42 40 39 40 40 43 40 42 38 39 36 31 31 30 31 30 29 26 24 25 27
43 43 42 39 37 36 37 42 35 31 31 31 28 27 28 26 35 38 36 37 40 40 43 44 45 46 48 49 51 51 51 51 49 47 48 47 44 44 43 42 39 37 35 34 31 31 31 29 28
33 38 39 35 35 34 34 35 37 34 35 34 29 31 31 33 39 46 49 48 50 50 52 52 52 53 55 57 57 57 56 58 60 61 63 58 56 57 53 52 49 52 52 43 44 41 36 35 33
23 33 40 37 34 33 33 32 38 33 32 36 36 36 37 39 39 40 43 52 56 54 56 58 61 61 60 61 62 64 66 66 65 66 66 64 67 67 66 62 61 59 56 56 53 49 46 41 38
11 17 21 28 35 34 38 37 34 33 35 36 39 43 44 46 49 52 54 56 59 63 64 64 66 65 68 73 75 73 76 72 72 73 72 71 72 72 70 68 68 64 65 65 60 55 47 48 47
19 11 12 20 24 27 32 40 35 39 34 35 40 44 46 50 47 54 59 60 59 64 72 76 80 81 81 82 83 85 86 87 87 86 84 84 79 79 77 75 75 74 71 67 67 63 62 58 51
24 13 7 2 7 16 24 27 29 26 32 36 39 36 33 46 53 44 47 49 51 54 58 59 60 65 69 74 77 78 80 82 87 91 86 87 87 88 87 85 84 84 82 78 74 71 68 66 65
38 29 20 12 4 3 8 17 18 21 21 25 16 13 14 15 16 23 27 29 32 33 33 40 48 50 54 58 59 62 67 70 74 78 79 82 81 83 84 83 84 87 88 85 85 81 78 74 71
31 30 29 23 17 12 5 3 9 12 12 9 12 15 16 19 22 24 25 31 36 35 35 34 35 38 43 48 53 57 60 64 66 68 69 68 69 71 73 74 78 79 81 84 85 82 82 80 78
25 27 25 24 22 19 15 10 9 9 13 17 17 20 20 25 29 31 35 38 44 43 43 43 47 39 40 40 44 51 57 59 59 61 60 59 60 60 60 62 66 70 77 83 84 87 84 82 82
20 23 25 20 16 15 15 12 11 12 14 19 23 26 27 30 33 35 37 39 42 47 50 49 47 50 53 52 43 42 46 51 53 56 57 58 58 59 60 63 65 67 69 73 81 87 90 88 86
15 13 15 20 17 13 13 11 11 15 17 17 23 25 27 29 32 36 39 41 43 47 50 52 53 53 56 58 60 56 49 47 49 52 53 55 56 57 59 61 64 67 69 72 75 77 85 89 92
9 8 8 10 13 17 11 10 11 11 15 19 23 26 29 33 35 35 37 39 43 47 50 52 55 57 59 61 63 65 62 65 53 48 49 51 53 52 54 56 57 57 59 63 68 73 77 83 91
9 6 6 7 9 14 16 11 11 14 17 20 23 26 30 32 35 38 40 42 44 46 48 51 55 57 60 62 65 67 68 70 68 56 51 50 49 48 51 53 51 50 52 55 60 66 71 76 82
15 14 13 13 12 13 19 21 19 20 24 26 28 30 32 35 38 41 44 47 48 49 51 53 56 58 62 66 68 70 73 74 74 70 55 53 54 53 51 52 50 49 47 49 53 57 61 67 74
23 21 19 19 17 21 21 25 28 25 28 31 34 36 39 39 41 43 47 49 53 54 55 56 60 61 64 66 68 71 75 76 76 80 66 54 53 54 54 53 53 52 49 48 48 52 56 60 65
29 26 26 25 22 25 28 26 36 30 30 35 36 39 43 46 47 47 50 54 56 57 58 59 60 63 64 68 72 72 77 79 83 83 78 60 52 52 53 54 54 54 54 55 55 53 52 55 58
32 30 32 31 26 28 33 32 37 36 36 40 41 43 46 49 50 52 53 55 59 61 63 63 64 66 67 69 73 76 77 79 83 83 79 67 57 54 52 55 55 56 57 57 57 59 61 59 58
34 33 33 32 34 36 40 37 46 43 47 49 48 47 50 53 54 56 57 58 60 64 67 68 69 69 70 72 75 75 80 83 88 84 84 65 58 57 56 56 57 58 58 59 61 62 61 63 66
35 38 35 33 36 39 39 44 46 50 54 54 55 55 57 58 59 61 61 63 63 68 72 72 73 74 74 76 78 80 85 90 91 89 86 64 58 56 58 58 58 59 61 62 63 65 66 67 68
Wind_Direction
180 172 167 162 166 159 174 171 166 169 181 183 170 185 180 181 187 196 198 185 228 224 250 260 233 342 327 325 323 331 327 330 331 332 335 339 344 348 348 345 338 341 333 332 321 309 299 285 269
165 163 161 160 160 156 162 157 148 168 176 175 177 195 194 191 200 208 202 202 221 217 217 247 249 274 291 329 340 316 314 324 329 329 332 329 332 341 345 344 343 338 337 339 333 330 311 296 280
158 158 156 157 156 156 152 141 134 131 164 219 229 251 244 225 226 222 223 218 216 232 232 235 253 283 285 296 320 320 308 325 321 321 322 322 321 326 337 344 342 342 334 337 338 335 324 308 289
153 150 152 158 156 147 135 116 106 117 192 220 225 280 250 217 227 216 232 251 240 246 257 275 281 273 273 286 308 326 302 307 310 307 312 313 315 317 324 331 333 340 340 333 330 330 322 315 302
149 148 156 159 159 155 148 136 104 23 242 234 226 230 233 210 245 234 233 239 262 266 275 277 277 260 260 275 277 296 318 316 312 309 308 309 307 306 307 308 318 325 335 338 332 328 326 322 317
146 152 159 160 162 157 156 161 159 183 212 209 208 220 233 228 241 251 260 259 256 257 266 268 270 272 272 272 277 278 292 297 305 308 300 300 304 304 303 301 301 306 313 320 331 328 317 324 318
153 158 159 163 169 159 156 156 164 178 176 179 188 216 233 230 232 251 260 243 263 262 269 273 281 281 276 275 276 272 282 290 295 293 293 287 292 296 297 296 299 296 298 305 309 314 323 312 310
155 162 165 166 171 155 161 171 159 157 177 184 205 191 237 248 246 241 254 261 249 259 257 262 264 266 267 269 273 272 274 279 281 282 279 280 279 286 284 290 284 288 292 295 293 299 302 312 309
161 165 171 172 176 171 168 156 153 163 188 188 236 240 269 270 263 249 249 254 253 253 265 270 267 268 269 269 267 272 272 276 277 276 278 273 279 283 282 282 286 289 284 282 288 290 290 293 301
165 168 175 177 182 177 173 176 180 196 202 209 210 212 219 245 260 268 265 262 256 255 262 268 272 273 273 274 278 279 282 277 275 272 269 274 272 270 274 279 277 281 289 281 275 278 285 286 284
171 173 179 185 187 185 183 189 197 208 216 221 215 233 238 239 247 256 264 269 273 271 274 276 276 275 276 274 276 276 280 282 279 285 275 274 270 267 267 275 274 281 289 286 277 273 269 276 281
176 180 187 190 194 195 197 201 210 216 220 237 237 246 242 253 261 259 256 265 268 269 271 274 275 277 279 282 283 284 280 276 279 278 279 279 275 277 273 275 276 273 278 283 275 281 276 266 267
182 190 195 201 201 204 205 212 218 228 235 241 252 253 262 260 259 264 266 270 272 272 275 276 277 277 278 277 279 280 282 281 280 281 281 275 273 275 276 275 275 279 282 280 278 275 275 275 269
181 192 201 208 211 219 220 224 222 239 241 248 253 265 273 264 268 271 269 268 271 275 280 279 280 279 279 277 276 276 277 276 278 280 280 279 279 278 275 273 274 274 273 277 279 272 271 270 270
112 188 205 217 225 226 228 235 242 254 248 250 257 266 276 280 286 286 285 282 276 277 275 279 279 278 280 280 281 280 277 273 274 273 273 275 277 278 277 275 275 274 274 273 274 270 270 271 271
77 107 194 220 235 245 241 244 256 255 269 277 280 285 289 293 297 295 293 293 296 292 284 283 282 282 284 282 280 278 278 277 279 274 275 274 272 273 274 275 276 275 271 270 271 269 267 266 268
78 86 95 173 246 251 255 260 256 269 279 280 286 293 295 292 295 301 300 298 294 295 292 289 281 281 281 282 282 280 278 278 276 274 273 274 272 271 268 266 268 269 267 266 266 265 264 264 265
63 70 78 90 93 256 266 262 269 274 286 292 302 317 339 334 334 340 316 348 332 321 313 304 294 287 286 284 284 283 281 279 278 277 277 278 276 274 268 266 267 262 261 261 262 261 261 260 259
59 66 69 68 69 65 84 244 262 275 286 330 30 26 18 19 16 11 5 7 10 2 0 348 328 314 301 293 289 288 286 284 285 283 281 279 277 275 272 269 265 261 256 257 256 256 256 256 255
63 65 71 76 68 58 60 55 45 62 47 35 26 26 22 19 16 15 13 11 10 5 3 9 11 356 344 322 306 296 291 290 290 288 286 286 284 281 277 271 267 264 259 255 253 251 250 249 250
61 66 64 64 67 67 52 51 48 45 33 22 16 11 6 4 4 6 5 5 3 1 0 1 2 4 6 5 348 324 306 296 290 288 285 284 283 282 280 278 274 269 263 258 254 250 247 247 246
41 53 62 61 59 52 42 32 24 18 11 21 10 5 2 1 1 357 356 357 358 357 357 355 356 357 359 2 3 357 343 322 306 297 293 289 285 285 283 281 277 273 269 263 257 252 248 244 243
27 40 32 35 37 36 42 30 12 4 355 355 358 358 355 355 352 352 352 352 353 352 352 353 352 350 352 353 354 358 355 352 333 314 303 297 292 288 284 283 281 278 273 266 259 254 251 248 244
324 330 335 347 8 2 15 3 352 352 351 348 346 346 346 347 348 347 346 345 346 346 346 348 348 347 345 347 348 349 349 350 347 332 316 308 299 295 290 289 284 278 272 268 264 258 253 249 247
304 302 304 312 315 330 350 353 347 337 338 338 339 339 340 342 343 344 344 342 342 342 342 342 343 343 342 340 342 344 345 345 345 341 325 312 304 299 296 291 286 284 279 271 266 262 259 255 252
296 299 293 297 303 316 327 337 339 336 332 334 333 332 332 334 335 338 338 339 339 338 340 338 338 339 338 337 336 339 340 341 340 342 333 316 305 300 297 297 293 291 286 276 272 268 265 261 258
307 297 292 290 294 308 313 322 328 331 325 326 330 328 328 331 331 331 333 334 335 336 335 336 336 335 336 334 334 334 337 338 338 336 335 320 307 299 295 293 293 289 288 287 286 276 268 265 262
299 296 302 291 286 299 308 314 317 322 321 321 326 323 322 327 328 329 328 331 333 333 333 332 334 333 333 334 330 332 334 334 335 332 330 323 309 300 295 291 289 287 285 283 280 281 282 279 270
296 289 301 299 289 296 301 303 307 312 313 315 319 319 318 324 324 324 324 328 330 330 331 330 333 332 332 330 329 327 329 332 332 331 329 319 309 302 296 293 291 288 283 280 279 278 274 275 276
283 285 292 294 296 296 300 297 299 300 306 308 313 313 313 318 319 320 320 324 329 328 328 330 331 331 329 329 327 325 328 330 327 328 328 317 308 301 294 291 291 288 286 283 281 277 275 273 272
Height
10747 10759 10775 10789 10800 10809 10816 10822 10827 10831 10836 10840 10843 10846 10849 10851 10853 10855 10856 10858 10857 10857 10858 10858 10857 10857 10857 10857 10856 10856 10856 10854 10854 10853 10851 10849 10846 10844 10842 10840 10838 10836 10834 10832 10831 10829 10828 10825 10823
10749 10760 10776 10788 10799 10808 10817 10823 10829 10833 10836 10839 10842 10846 10849 10850 10850 10852 10854 10854 10854 10855 10855 10856 10856 10856 10856 10856 10855 10855 10854 10853 10851 10850 10849 10848 10846 10844 10842 10840 10839 10836 10833 10831 10829 10828 10827 10825 10822
10751 10761 10776 10791 10800 10809 10816 10824 10830 10835 10838 10840 10842 10845 10848 10848 10850 10851 10851 10853 10853 10853 10854 10854 10855 10855 10855 10855 10854 10853 10852 10851 10850 10849 10847 10846 10845 10844 10841 10839 10837 10836 10833 10831 10829 10827 10826 10824 10822
10756 10766 10779 10791 10799 10807 10817 10826 10829 10834 10838 10838 10838 10840 10841 10844 10844 10844 10846 10851 10852 10853 10853 10854 10853 10853 10853 10852 10852 10851 10850 10849 10849 10848 10846 10845 10843 10842 10841 10839 10838 10836 10834 10832 10830 10827 10825 10823 10821
10761 10769 10781 10790 10797 10803 10812 10823 10828 10833 10836 10837 10835 10836 10838 10839 10839 10841 10844 10845 10846 10849 10850 10849 10850 10850 10849 10850 10849 10849 10848 10847 10846 10846 10845 10843 10842 10840 10839 10839 10837 10836 10834 10832 10830 10828 10825 10822 10820
10766 10774 10781 10790 10797 10804 10810 10815 10822 10828 10829 10832 10833 10834 10834 10836 10837 10839 10842 10843 10844 10844 10844 10845 10846 10846 10846 10846 10846 10845 10845 10844 10844 10842 10842 10841 10840 10839 10837 10836 10835 10834 10832 10831 10829 10827 10824 10822 10820
10770 10777 10785 10790 10797 10804 10810 10814 10821 10825 10828 10830 10832 10833 10835 10833 10835 10837 10838 10840 10841 10840 10841 10841 10841 10841 10841 10840 10841 10841 10841 10840 10839 10838 10837 10837 10836 10835 10834 10833 10833 10831 10830 10829 10828 10826 10824 10821 10818
10774 10781 10786 10792 10800 10808 10812 10815 10819 10824 10827 10830 10831 10830 10832 10833 10834 10836 10837 10837 10837 10837 10837 10837 10837 10836 10835 10835 10835 10835 10835 10835 10835 10834 10833 10832 10831 10830 10830 10829 10829 10828 10828 10827 10824 10823 10822 10820 10818
10776 10783 10786 10792 10798 10806 10813 10816 10819 10823 10827 10828 10829 10830 10830 10830 10830 10831 10832 10833 10832 10832 10831 10832 10831 10831 10831 10830 10829 10829 10828 10829 10829 10828 10829 10829 10827 10826 10825 10824 10823 10823 10823 10823 10822 10820 10818 10818 10816
10779 10786 10790 10796 10801 10808 10814 10814 10817 10821 10825 10825 10827 10826 10828 10829 10828 10828 10828 10828 10828 10828 10827 10826 10826 10825 10825 10825 10824 10823 10822 10822 10822 10821 10822 10822 10822 10822 10820 10819 10818 10817 10817 10817 10817 10816 10815 10813 10812
10786 10792 10796 10801 10805 10809 10814 10816 10817 10820 10821 10823 10824 10825 10825 10825 10826 10825 10825 10824 10823 10822 10821 10819 10819 10818 10818 10818 10817 10817 10816 10815 10815 10815 10814 10814 10814 10814 10814 10813 10812 10812 10811 10810 10810 10810 10810 10809 10807
10789 10793 10798 10802 10807 10811 10815 10817 10817 10817 10818 10817 10820 10821 10822 10822 10821 10820 10819 10817 10817 10816 10815 10815 10813 10811 10809 10809 10809 10807 10807 10806 10805 10806 10806 10806 10806 10806 10807 10806 10806 10806 10804 10804 10803 10803 10803 10803 10803
10795 10799 10801 10805 10809 10811 10814 10817 10818 10820 10819 10819 10818 10818 10818 10817 10816 10816 10814 10812 10811 10809 10808 10807 10806 10805 10803 10802 10799 10798 10797 10796 10796 10795 10794 10795 10796 10795 10796 10796 10798 10798 10796 10796 10795 10795 10795 10795 10796
10795 10800 10804 10807 10811 10813 10815 10816 10817 10818 10818 10816 10816 10814 10813 10813 10812 10810 10808 10807 10805 10804 10802 10800 10798 10795 10793 10792 10791 10789 10787 10785 10784 10783 10781 10781 10780 10781 10783 10783 10784 10785 10785 10785 10786 10786 10786 10785 10785
10799 10803 10807 10810 10812 10814 10814 10814 10815 10815 10814 10815 10814 10812 10810 10807 10805 10803 10800 10799 10798 10794 10791 10787 10786 10783 10781 10779 10776 10774 10773 10772 10770 10769 10767 10767 10767 10766 10766 10768 10768 10769 10770 10772 10773 10774 10775 10775 10775
10801 10804 10806 10808 10809 10810 10813 10814 10813 10813 10813 10812 10811 10808 10805 10803 10797 10794 10791 10787 10784 10781 10779 10775 10771 10767 10763 10760 10758 10757 10754 10752 10750 10750 10749 10750 10750 10752 10752 10751 10750 10752 10754 10755 10757 10759 10761 10763 10765
10805 10807 10808 10809 10809 10811 10812 10811 10812 10813 10811 10809 10808 10804 10799 10796 10794 10787 10785 10781 10776 10771 10765 10760 10755 10751 10748 10744 10738 10732 10729 10726 10726 10727 10726 10726 10727 10728 10729 10733 10733 10731 10732 10735 10738 10742 10745 10747 10750
10811 10809 10810 10809 10810 10810 10810 10809 10810 10808 10807 10805 10803 10799 10796 10792 10788 10783 10780 10772 10767 10760 10753 10747 10743 10736 10730 10726 10723 10717 10712 10709 10704 10703 10703 10702 10701 10701 10703 10705 10709 10709 10709 10710 10716 10721 10724 10729 10733
10816 10816 10815 10814 10814 10812 10810 10809 10807 10805 10803 10801 10798 10794 10790 10788 10783 10780 10774 10770 10764 10756 10748 10740 10733 10727 10721 10716 10710 10704 10698 10692 10689 10685 10680 10679 10679 10678 10678 10678 10681 10683 10687 10690 10693 10697 10703 10707 10711
10817 10816 10815 10813 10810 10809 10809 10808 10806 10804 10801 10799 10795 10791 10789 10785 10780 10775 10770 10764 10757 10751 10745 10737 10728 10721 10714 10705 10698 10693 10686 10680 10675 10669 10664 10660 10658 10656 10656 10655 10657 10658 10659 10662 10667 10673 10680 10685 10690
10817 10815 10813 10810 10808 10807 10806 10805 10804 10803 10801 10797 10793 10789 10785 10781 10776 10770 10765 10759 10753 10745 10738 10731 10724 10716 10707 10699 10691 10683 10675 10668 10662 10655 10651 10647 10643 10640 10637 10635 10634 10635 10636 10637 10641 10646 10653 10661 10666
10817 10815 10813 10812 10810 10808 10805 10805 10802 10799 10797 10794 10791 10786 10781 10775 10769 10763 10758 10752 10746 10739 10732 10723 10715 10707 10700 10692 10684 10675 10666 10657 10648 10642 10636 10632 10629 10624 10620 10617 10614 10612 10611 10613 10616 10620 10625 10632 10638
10816 10814 10813 10811 10809 10808 10805 10802 10799 10795 10792 10788 10785 10780 10775 10771 10765 10760 10754 10747 10739 10732 10724 10716 10708 10699 10691 10683 10676 10667 10658 10650 10640 10632 10625 10618 10613 10610 10606 10601 10595 10592 10590 10589 10590 10593 10600 10605 10610
10814 10812 10811 10809 10807 10804 10800 10797 10794 10790 10787 10783 10779 10775 10771 10766 10761 10755 10748 10740 10733 10726 10719 10711 10702 10693 10684 10675 10666 10658 10650 10641 10631 10620 10611 10605 10600 10595 10591 10586 10582 10577 10573 10571 10570 10570 10573 10578 10583
10812 10810 10808 10806 10802 10799 10796 10793 10789 10784 10780 10776 10772 10768 10764 10759 10753 10747 10740 10733 10726 10718 10711 10703 10695 10686 10677 10666 10656 10647 10639 10632 10622 10613 10602 10593 10586 10581 10576 10573 10567 10562 10558 10556 10554 10553 10553 10554 10558
10809 10807 10805 10800 10798 10794 10790 10788 10784 10779 10775 10771 10766 10762 10757 10751 10745 10739 10732 10725 10718 10710 10702 10694 10685 10676 10667 10658 10648 10639 10629 10618 10610 10602 10592 10583 10575 10568 10563 10557 10552 10547 10544 10542 10539 10537 10536 10536 10537
10806 10803 10800 10796 10793 10789 10784 10782 10778 10774 10769 10764 10760 10755 10748 10743 10737 10731 10723 10716 10709 10701 10692 10684 10675 10667 10658 10649 10639 10630 10619 10608 10597 10587 10579 10571 10563 10556 10550 10544 10538 10534 10530 10526 10523 10521 10520 10518 10516
10800 10798 10795 10792 10788 10785 10781 10776 10772 10768 10763 10757 10752 10746 10739 10733 10728 10721 10713 10706 10698 10690 10682 10674 10665 10656 10648 10639 10630 10620 10611 10601 10591 10579 10568 10557 10549 10542 10537 10530 10525 10520 10516 10512 10508 10504 10500 10498 10498
10794 10791 10789 10787 10783 10780 10776 10772 10765 10762 10756 10749 10743 10737 10730 10724 10717 10711 10703 10695 10687 10679 10671 10663 10654 10644 10634 10626 10617 10608 10599 10589 10579 10568 10557 10546 10536 10527 10521 10514 10508 10502 10498 10494 10491 10486 10485 10481 10477
10786 10783 10782 10781 10777 10772 10769 10765 10760 10755 10749 10742 10736 10730 10722 10715 10707 10700 10692 10684 10675 10667 10659 10650 10640 10629 10619 10610 10601 10592 10583 10573 10563 10553 10542 10531 10522 10513 10506 10499 10492 10485 10478 10474 10470 10466 10462 10459 10457